Погода в Нартане

Россия / Кабардино-Балкарская Республика     43°30′19″N   43°42′05″E
темп.,
°C
ветер,
м/с
пор.,
м/с
влажн.,
%
обл.,
%
осадки,
мм/ч
давл.,
гПа
погр.,
м
12 апреля, пн
пн1200:00+7зюз22844 0.0 101714
03:00+7з2285100 0.0 101720
06:00+7зюз2285100 0.0 101920
09:00+11ссз2365100 0.0 1020670
12:00+12сз336298 0.0 1020831
15:00+12сз4465100 0.0 1021738
18:00+10ссз2374100 0.0 1021235
21:00+9сз1177100 0.0 102233
13 апреля, вт
вт1300:00+9ссз1279100 0.0 1023112
03:00+8юв1182100 0.1 102335
06:00+8в0085100 0.1 102335
09:00+8св0188100 0.9 1023159
12:00+8сз2288100 0.7 1022290
15:00+9с1283100 0.8 1022356
18:00+9зсз128695 0.0 1021151
21:00+8ссв1191100 0.3 102114
14 апреля, ср
ср1400:00+8з2294100 2.1 102093
03:00+8юз1188100 2.8 101829
06:00+8юв1187100 0.0 101827
09:00+11ссв237190 0.0 1017666
12:00+13с1258100 0.0 10161192
15:00+14с2259100 0.1 1016896
18:00+11зюз3480100 0.3 1017123
21:00+10зюз2381100 0.9 101878
15 апреля, чт
чт1500:00+8юз22796 0.0 101712
03:00+7юз22773 0.0 101715
06:00+7юз32650 0.0 101828
09:00+14всв11532 0.0 1017493
12:00+17с22444 0.0 10151234
15:00+19св22365 0.0 10141616
18:00+16св234932 0.0 101553
21:00+14з115195 0.0 101711
16 апреля, пт
пт1600:00+11з22617 0.0 101612
03:00+9юз226492 0.0 101713
06:00+9юз226148 0.0 101714
09:00+15в234734 0.0 1016533
12:00+19в44410 0.0 10151436
15:00+20в443837 0.0 10131902
18:00+17в375796 0.0 1013169
21:00+13зюз1166100 0.1 101511